Location: Carnières
(50.1682°N, 3.3474°E)
Time: 05:04:30
(UTC+00:00)

MOZ.5/SAFIR/RUBIN 5/SL-8 - Pass Details

Date: 08 August 2024
Orbit: 671 x 698 km, 98.3° (Epoch: 08 September)

Event Time Altitude Azimuth Distance (km) Brightness Sun altitude
Exits shadow 00:47:05 34° 126° (SE) 1,132 4.7 -22.7°
Maximum altitude 00:48:48 53° 69° (ENE) 856 4.4 -22.6°
Drops below altitude 10° 00:53:24 10° 354° (N) 2,165 7.3 -22.4°
Sets 00:55:43 0° 350° (N) 3,090 8.2 -22.3°
